Location: Conflandey
(47.7287°N, 6.0456°E)
Time: 03:54:20
(UTC+00:00)

USA 229 DEB - Pass Details

Date: 24 October 2021
Orbit: 944 x 1268 km, 63.4° (Epoch: 25 November)

Event Time Altitude Azimuth Distance (km) Brightness Sun altitude
Rises 17:24:54 0° 187° (S) 3,616 6.7 -9.7°
Reaches altitude 10° 17:27:35 10° 179° (S) 2,697 5.9 -10.1°
Maximum altitude 17:33:13 35° 115° (ESE) 1,550 4.1 -11.1°
Drops below altitude 10° 17:39:11 10° 52° (NE) 2,871 5.5 -12.1°
Enters shadow 17:39:26 - 52° (NE) 2,954 5.5 -12.1°
